Simultaneous Nadir Overpasses (SNOs) Predictions

Prediction of SNOs between GOES-15 and METOP-C Satellite Orbit:

Table of predicted SNOs for the next 14.0 days since TLE Epoch: 7/29/2019
Index Date Time (GOES-15) GOES-15 Lat,Lon METOP-C Lat,Lon Distance(km) Time Diff (sec)
1 07/30/2019 18:11:34 -0.02,-128.23 0.33,-129.80 178.28 80
2 07/31/2019 17:48:16 -0.05,-128.25 -0.84,-124.81 392.29 80
3 08/02/2019 06:09:55 0.02,-128.27 -0.24,-129.40 128.92 80
4 08/03/2019 05:46:36 0.05,-128.28 0.92,-124.41 441.10 80
5 08/04/2019 18:08:08 -0.01,-128.32 0.14,-128.96 73.90 80
6 08/05/2019 17:44:49 -0.04,-128.33 -1.03,-123.98 496.34 80
7 08/07/2019 06:06:28 0.00,-128.35 -0.06,-128.56 25.09 80
8 08/09/2019 18:02:01 0.01,-128.39 -0.05,-128.13 28.78 80
9 08/11/2019 06:23:41 -0.05,-128.40 -1.04,-132.71 492.82 80
10 08/12/2019 06:00:22 -0.02,-128.40 0.12,-127.73 76.38 80




NCC Satellite Simultaneous Nadir Overpasses (SNOs) Prediction Service
